Погода в Скоморошках

Россия / Тульская область     54°04′48″N   36°56′36″E
темп.,
°C
ветер,
м/с
пор.,
м/с
влажн.,
%
обл.,
%
осадки,
мм/ч
давл.,
гПа
погр.,
м
22 января, сб
сб2200:00−5ю61296100 0.7 998643
03:00−4ююз51195100 1.6 999516
06:00−6ю3697100 0.3 1000164
09:00−6ююз2497100 0.7 1003119
12:00−4ююз479491 0.2 1005485
15:00−5ю249594 0.2 1007129
18:00−5ю2696100 0.2 1010259
21:00−11ююв229989 0.3 101310
23 января, вс
вс2300:00−11вюв119777 0.1 101515
03:00−15в1110099 0.1 10179
06:00−17всв11100100 0.0 10209
09:00−18в11100100 0.1 10249
12:00−10в119688 0.0 102674
15:00−8св12965 0.0 102850
18:00−16св2210084 0.0 10329
21:00−17ссв22100100 0.0 103417
24 января, пн
пн2400:00−19ссв22100100 0.0 103616
03:00−20св22100100 0.1 103724
06:00−18ссв36100100 0.0 103778
09:00−18св39100100 0.1 1038120
12:00−11св499580 0.0 1038219
15:00−9св499460 0.0 1036296
18:00−12св399788 0.0 1037143
21:00−13всв389889 0.1 1036126
25 января, вт
вт2500:00−17всв22100100 0.0 103511
03:00−19всв22100100 0.0 103310
06:00−20всв22100100 0.0 103111
09:00−21в1110074 0.0 10309
12:00−12ююв13915 0.0 1028116
15:00−9ю129398 0.0 1025125
18:00−15ю229969 0.0 102510
21:00−18ююз2210097 0.0 102418
26 января, ср
ср2600:00−16ю229976 0.1 102311
03:00−18ю2210098 0.1 102320
06:00−16ю119966 0.1 10219
09:00−16юв0198100 0.3 102116
12:00−10ю1192100 0.2 1020141
15:00−8ююз1191100 0.3 1019205
18:00−11ссз009883 0.1 102010
21:00−14ююз119985 0.1 10209